"Sample Date","Sample Time","Sample Value","Units","Flow Rate","Laser Status","Micron Size 0","Counts/Channel 0","Micron Size 1","Counts/Channel 1","Micron Size 2","Counts/Channel 2","Micron Size 3","Counts/Channel 3","Micron Size 4","Counts/Channel 4","Micron Size 5","Counts/Channel 5","Micron Size 6","Counts/Channel 6","Micron Size 7","Counts/Channel 7","Micron Size 8","Counts/Channel 8","Micron Size 9","Counts/Channel 9","Micron Size 10","Counts/Channel 10","Micron Size 11","Counts/Channel 11","Micron Size 12","Counts/Channel 12","Micron Size 13","Counts/Channel 13","Micron Size 14","Counts/Channel 14","Micron Size 15","Counts/Channel 15","Micron Size 16","Counts/Channel 16","Micron Size 17","Counts/Channel 17","Micron Size 18","Counts/Channel 18","Micron Size 19","Counts/Channel 19","Micron Size 20","Counts/Channel 20","Micron Size 21","Counts/Channel 21","Micron Size 22","Counts/Channel 22","Micron Size 23","Counts/Channel 23","Micron Size 24","Counts/Channel 24","Micron Size 25","Counts/Channel 25","Micron Size 26","Counts/Channel 26","Micron Size 27","Counts/Channel 27","Micron Size 28","Counts/Channel 28","Micron Size 29","Counts/Channel 29","Micron Size 30","Counts/Channel 30","Micron Size 31","Counts/Channel 31"
"05/03/07","10:00:04",28417.000,"cc",28353.436,1,0.100,22446.000,0.200,5237.000,0.300,655.000,0.500,61.000,1.000,18.000,5.000,0
"05/03/07","10:00:10",28602.000,"cc",28290.215,1,0.100,22491.000,0.200,5364.000,0.300,665.000,0.500,65.000,1.000,17.000,5.000,0
"05/03/07","10:00:16",28108.000,"cc",28400.320,1,0.100,22078.000,0.200,5235.000,0.300,721.000,0.500,61.000,1.000,13.000,5.000,0
"05/03/07","10:00:22",28345.000,"cc",28263.590,1,0.100,22318.000,0.200,5275.000,0.300,674.000,0.500,65.000,1.000,13.000,5.000,0
"05/03/07","10:00:28",28196.000,"cc",28298.984,1,0.100,22267.000,0.200,5211.000,0.300,638.000,0.500,61.000,1.000,19.000,5.000,0
"05/03/07","10:00:34",28053.000,"cc",28356.635,1,0.100,22127.000,0.200,5172.000,0.300,669.000,0.500,61.000,1.000,24.000,5.000,0
"05/03/07","10:00:40",27877.000,"cc",28295.326,1,0.100,21966.000,0.200,5154.000,0.300,683.000,0.500,58.000,1.000,16.000,5.000,0
"05/03/07","10:00:46",27654.000,"cc",28339.977,1,0.100,21792.000,0.200,5112.000,0.300,664.000,0.500,73.000,1.000,13.000,5.000,0
"05/03/07","10:00:52",27801.000,"cc",28294.535,1,0.100,21890.000,0.200,5210.000,0.300,634.000,0.500,52.000,1.000,15.000,5.000,0
"05/03/07","10:00:58",27949.000,"cc",28332.006,1,0.100,22134.000,0.200,5091.000,0.300,654.000,0.500,60.000,1.000,10.000,5.000,0
"05/03/07","10:01:04",27568.000,"cc",28329.783,1,0.100,21845.000,0.200,5012.000,0.300,640.000,0.500,57.000,1.000,14.000,5.000,0
"05/03/07","10:01:10",27678.000,"cc",28310.760,1,0.100,21770.000,0.200,5195.000,0.300,634.000,0.500,63.000,1.000,16.000,5.000,0
"05/03/07","10:01:16",27554.000,"cc",28278.484,1,0.100,21677.000,0.200,5137.000,0.300,656.000,0.500,71.000,1.000,13.000,5.000,0
"05/03/07","10:01:22",27664.000,"cc",28349.012,1,0.100,21894.000,0.200,5038.000,0.300,655.000,0.500,58.000,1.000,19.000,5.000,0
"05/03/07","10:01:28",27661.000,"cc",28363.559,1,0.100,21801.000,0.200,5112.000,0.300,678.000,0.500,54.000,1.000,16.000,5.000,0
"05/03/07","10:01:34",27759.000,"cc",28305.572,1,0.100,21864.000,0.200,5187.000,0.300,616.000,0.500,80.000,1.000,12.000,5.000,0
"05/03/07","10:01:40",28174.000,"cc",28337.838,1,0.100,22262.000,0.200,5186.000,0.300,657.000,0.500,60.000,1.000,9.000,5.000,0
"05/03/07","10:01:46",27649.000,"cc",28308.940,1,0.100,21845.000,0.200,5167.000,0.300,575.000,0.500,43.000,1.000,19.000,5.000,0
"05/03/07","10:01:52",27603.000,"cc",28319.412,1,0.100,21940.000,0.200,4937.000,0.300,654.000,0.500,54.000,1.000,18.000,5.000,0
"05/03/07","10:01:58",27536.000,"cc",28325.945,1,0.100,21856.000,0.200,4988.000,0.300,630.000,0.500,52.000,1.000,10.000,5.000,0
"05/03/07","10:02:04",27742.000,"cc",28348.141,1,0.100,21979.000,0.200,5111.000,0.300,595.000,0.500,48.000,1.000,9.000,5.000,0
"05/03/07","10:02:10",27546.000,"cc",28312.438,1,0.100,21855.000,0.200,4974.000,0.300,649.000,0.500,57.000,1.000,11.000,5.000,0
"05/03/07","10:02:16",27595.000,"cc",28319.440,1,0.100,21846.000,0.200,5017.000,0.300,660.000,0.500,63.000,1.000,9.000,5.000,0
"05/03/07","10:02:22",27650.000,"cc",28263.875,1,0.100,21894.000,0.200,5025.000,0.300,673.000,0.500,50.000,1.000,8.000,5.000,0
"05/03/07","10:02:28",27728.000,"cc",28350.420,1,0.100,21830.000,0.200,5239.000,0.300,609.000,0.500,40.000,1.000,10.000,5.000,0
"05/03/07","10:02:34",27719.000,"cc",28380.320,1,0.100,22145.000,0.200,4928.000,0.300,593.000,0.500,43.000,1.000,10.000,5.000,0
"05/03/07","10:02:40",27764.000,"cc",28298.096,1,0.100,21936.000,0.200,5131.000,0.300,636.000,0.500,53.000,1.000,8.000,5.000,0
"05/03/07","10:02:46",27484.000,"cc",28288.219,1,0.100,21770.000,0.200,4974.000,0.300,664.000,0.500,65.000,1.000,11.000,5.000,0
"05/03/07","10:02:52",28152.000,"cc",28304.166,1,0.100,22293.000,0.200,5180.000,0.300,621.000,0.500,51.000,1.000,7.000,5.000,0
"05/03/07","10:02:58",27637.000,"cc",28300.193,1,0.100,21735.000,0.200,5211.000,0.300,636.000,0.500,47.000,1.000,8.000,5.000,0
"05/03/07","10:03:04",27776.000,"cc",28330.494,1,0.100,22030.000,0.200,5079.000,0.300,623.000,0.500,35.000,1.000,9.000,5.000,0
"05/03/07","10:03:10",28052.000,"cc",28310.711,1,0.100,22193.000,0.200,5118.000,0.300,669.000,0.500,64.000,1.000,8.000,5.000,0
"05/03/07","10:03:16",27785.000,"cc",28307.947,1,0.100,21852.000,0.200,5225.000,0.300,645.000,0.500,54.000,1.000,9.000,5.000,0
"05/03/07","10:03:22",27604.000,"cc",28325.223,1,0.100,21727.000,0.200,5186.000,0.300,637.000,0.500,45.000,1.000,9.000,5.000,0
"05/03/07","10:03:28",28030.000,"cc",28294.154,1,0.100,22165.000,0.200,5166.000,0.300,644.000,0.500,42.000,1.000,13.000,5.000,0
"05/03/07","10:03:34",27732.000,"cc",28333.305,1,0.100,21800.000,0.200,5226.000,0.300,644.000,0.500,55.000,1.000,7.000,5.000,0
"05/03/07","10:03:40",28050.000,"cc",28331.324,1,0.100,22254.000,0.200,5064.000,0.300,649.000,0.500,61.000,1.000,22.000,5.000,0
"05/03/07","10:03:46",28225.000,"cc",28252.445,1,0.100,22223.000,0.200,5337.000,0.300,606.000,0.500,42.000,1.000,17.000,5.000,0
"05/03/07","10:03:52",28170.000,"cc",28336.035,1,0.100,22246.000,0.200,5224.000,0.300,631.000,0.500,57.000,1.000,12.000,5.000,0
"05/03/07","10:03:58",27974.000,"cc",28377.115,1,0.100,22143.000,0.200,5163.000,0.300,607.000,0.500,53.000,1.000,8.000,5.000,0
"05/03/07","10:04:04",28067.000,"cc",28344.723,1,0.100,22106.000,0.200,5259.000,0.300,644.000,0.500,49.000,1.000,9.000,5.000,0
"05/03/07","10:04:10",28226.000,"cc",28339.156,1,0.100,22336.000,0.200,5148.000,0.300,686.000,0.500,49.000,1.000,7.000,5.000,0
"05/03/07","10:04:16",27848.000,"cc",28312.203,1,0.100,22003.000,0.200,5159.000,0.300,632.000,0.500,45.000,1.000,9.000,5.000,0
"05/03/07","10:04:22",28189.000,"cc",28299.852,1,0.100,22201.000,0.200,5270.000,0.300,663.000,0.500,43.000,1.000,12.000,5.000,0
"05/03/07","10:04:28",28114.000,"cc",28317.139,1,0.100,22244.000,0.200,5206.000,0.300,613.000,0.500,45.000,1.000,6.000,5.000,0
"05/03/07","10:04:34",28065.000,"cc",28246.063,1,0.100,22209.000,0.200,5167.000,0.300,640.000,0.500,43.000,1.000,6.000,5.000,0
"05/03/07","10:04:40",27839.000,"cc",28288.168,1,0.100,21838.000,0.200,5300.000,0.300,626.000,0.500,64.000,1.000,11.000,5.000,0
"05/03/07","10:04:46",27852.000,"cc",28319.219,1,0.100,21980.000,0.200,5169.000,0.300,638.000,0.500,56.000,1.000,9.000,5.000,0
"05/03/07","10:04:52",27753.000,"cc",28355.606,1,0.100,22029.000,0.200,5036.000,0.300,599.000,0.500,78.000,1.000,11.000,5.000,0
"05/03/07","10:04:58",27935.000,"cc",28313.035,1,0.100,22109.000,0.200,5114.000,0.300,636.000,0.500,57.000,1.000,19.000,5.000,0
"05/03/07","10:05:04",27421.000,"cc",28351.354,1,0.100,21737.000,0.200,5015.000,0.300,606.000,0.500,49.000,1.000,14.000,5.000,0
"05/03/07","10:05:10",27642.000,"cc",28312.709,1,0.100,21820.000,0.200,5101.000,0.300,652.000,0.500,59.000,1.000,10.000,5.000,0
"05/03/07","10:05:16",27837.000,"cc",28285.518,1,0.100,21965.000,0.200,5166.000,0.300,639.000,0.500,56.000,1.000,11.000,5.000,0
"05/03/07","10:05:22",27993.000,"cc",28348.270,1,0.100,22001.000,0.200,5249.000,0.300,679.000,0.500,48.000,1.000,16.000,5.000,0
"05/03/07","10:05:28",27609.000,"cc",28332.045,1,0.100,21746.000,0.200,5155.000,0.300,617.000,0.500,74.000,1.000,17.000,5.000,0
"05/03/07","10:05:34",27453.000,"cc",28299.666,1,0.100,21648.000,0.200,5119.000,0.300,620.000,0.500,59.000,1.000,7.000,5.000,0
"05/03/07","10:05:40",27382.000,"cc",28282.986,1,0.100,21657.000,0.200,5046.000,0.300,603.000,0.500,61.000,1.000,15.000,5.000,0
"05/03/07","10:05:46",27336.000,"cc",28312.729,1,0.100,21514.000,0.200,5117.000,0.300,629.000,0.500,59.000,1.000,17.000,5.000,0
"05/03/07","10:05:52",27555.000,"cc",28323.182,1,0.100,21681.000,0.200,5166.000,0.300,621.000,0.500,72.000,1.000,15.000,5.000,0
"05/03/07","10:05:58",27431.000,"cc",28275.147,1,0.100,21664.000,0.200,5041.000,0.300,652.000,0.500,51.000,1.000,23.000,5.000,0
"05/03/07","10:06:04",27611.000,"cc",28356.332,1,0.100,21806.000,0.200,5100.000,0.300,633.000,0.500,56.000,1.000,16.000,5.000,0
"05/03/07","10:06:10",27459.000,"cc",28284.619,1,0.100,21712.000,0.200,5028.000,0.300,623.000,0.500,77.000,1.000,19.000,5.000,0
"05/03/07","10:06:16",27391.000,"cc",28337.852,1,0.100,21673.000,0.200,5025.000,0.300,612.000,0.500,62.000,1.000,19.000,5.000,0
"05/03/07","10:06:22",26796.000,"cc",28307.467,1,0.100,21167.000,0.200,4945.000,0.300,609.000,0.500,59.000,1.000,16.000,5.000,0
"05/03/07","10:06:28",27110.000,"cc",28370.690,1,0.100,21373.000,0.200,5068.000,0.300,606.000,0.500,56.000,1.000,7.000,5.000,0
"05/03/07","10:06:34",26830.000,"cc",28308.115,1,0.100,21095.000,0.200,5055.000,0.300,599.000,0.500,67.000,1.000,14.000,5.000,0
"05/03/07","10:06:40",27387.000,"cc",28313.152,1,0.100,21638.000,0.200,5069.000,0.300,599.000,0.500,58.000,1.000,23.000,5.000,0
"05/03/07","10:06:46",27320.000,"cc",28326.520,1,0.100,21472.000,0.200,5133.000,0.300,635.000,0.500,57.000,1.000,23.000,5.000,0
"05/03/07","10:06:52",27191.000,"cc",28278.531,1,0.100,21467.000,0.200,5050.000,0.300,601.000,0.500,62.000,1.000,11.000,5.000,0
"05/03/07","10:06:58",26992.000,"cc",28324.440,1,0.100,21332.000,0.200,4965.000,0.300,610.000,0.500,74.000,1.000,11.000,5.000,0
"05/03/07","10:07:04",26903.000,"cc",28353.133,1,0.100,21184.000,0.200,5027.000,0.300,617.000,0.500,62.000,1.000,13.000,5.000,0
"05/03/07","10:07:10",27158.000,"cc",28313.721,1,0.100,21456.000,0.200,5017.000,0.300,612.000,0.500,56.000,1.000,17.000,5.000,0
"05/03/07","10:07:16",26619.000,"cc",28317.793,1,0.100,21092.000,0.200,4853.000,0.300,598.000,0.500,58.000,1.000,18.000,5.000,0
"05/03/07","10:07:22",26838.000,"cc",28344.264,1,0.100,21037.000,0.200,5093.000,0.300,629.000,0.500,63.000,1.000,16.000,5.000,0
"05/03/07","10:07:28",27169.000,"cc",28320.045,1,0.100,21398.000,0.200,5082.000,0.300,618.000,0.500,64.000,1.000,7.000,5.000,0
"05/03/07","10:07:34",26835.000,"cc",28294.272,1,0.100,21154.000,0.200,4993.000,0.300,635.000,0.500,49.000,1.000,4.000,5.000,0
"05/03/07","10:07:40",26661.000,"cc",28305.150,1,0.100,21131.000,0.200,4845.000,0.300,620.000,0.500,55.000,1.000,10.000,5.000,0
"05/03/07","10:07:46",27084.000,"cc",28374.166,1,0.100,21243.000,0.200,5121.000,0.300,642.000,0.500,67.000,1.000,11.000,5.000,0
"05/03/07","10:07:52",26839.000,"cc",28255.818,1,0.100,21124.000,0.200,4991.000,0.300,666.000,0.500,51.000,1.000,7.000,5.000,0
"05/03/07","10:07:58",26747.000,"cc",28306.367,1,0.100,20950.000,0.200,5104.000,0.300,624.000,0.500,52.000,1.000,17.000,5.000,0
"05/03/07","10:08:04",26574.000,"cc",28353.100,1,0.100,20863.000,0.200,5028.000,0.300,614.000,0.500,52.000,1.000,17.000,5.000,0
"05/03/07","10:08:10",26447.000,"cc",28317.295,1,0.100,20801.000,0.200,4985.000,0.300,597.000,0.500,47.000,1.000,17.000,5.000,0
"05/03/07","10:08:16",26682.000,"cc",28308.885,1,0.100,21025.000,0.200,4942.000,0.300,645.000,0.500,55.000,1.000,15.000,5.000,0
"05/03/07","10:08:22",26298.000,"cc",28329.412,1,0.100,20648.000,0.200,4945.000,0.300,630.000,0.500,65.000,1.000,10.000,5.000,0
"05/03/07","10:08:28",26261.000,"cc",28296.295,1,0.100,20558.000,0.200,5037.000,0.300,595.000,0.500,55.000,1.000,16.000,5.000,0
"05/03/07","10:08:34",26471.000,"cc",28317.879,1,0.100,21020.000,0.200,4764.000,0.300,604.000,0.500,62.000,1.000,21.000,5.000,0
"05/03/07","10:08:40",26054.000,"cc",28320.582,1,0.100,20446.000,0.200,4919.000,0.300,631.000,0.500,52.000,1.000,5.000,5.000,1.000
"05/03/07","10:08:46",26301.000,"cc",28339.176,1,0.100,20722.000,0.200,4953.000,0.300,566.000,0.500,52.000,1.000,8.000,5.000,0
"05/03/07","10:08:52",26342.000,"cc",28305.629,1,0.100,20832.000,0.200,4846.000,0.300,600.000,0.500,56.000,1.000,8.000,5.000,0
"05/03/07","10:08:58",26198.000,"cc",28271.514,1,0.100,20524.000,0.200,5023.000,0.300,571.000,0.500,70.000,1.000,10.000,5.000,0
"05/03/07","10:09:04",26078.000,"cc",28307.305,1,0.100,20684.000,0.200,4707.000,0.300,615.000,0.500,58.000,1.000,14.000,5.000,0
"05/03/07","10:09:10",25904.000,"cc",28341.928,1,0.100,20363.000,0.200,4871.000,0.300,594.000,0.500,64.000,1.000,12.000,5.000,0
"05/03/07","10:09:16",25751.000,"cc",28300.867,1,0.100,20335.000,0.200,4767.000,0.300,579.000,0.500,51.000,1.000,19.000,5.000,0
"05/03/07","10:09:22",26254.000,"cc",28267.231,1,0.100,20756.000,0.200,4839.000,0.300,589.000,0.500,58.000,1.000,12.000,5.000,0
"05/03/07","10:09:28",26247.000,"cc",28363.516,1,0.100,20712.000,0.200,4869.000,0.300,599.000,0.500,62.000,1.000,5.000,5.000,0
"05/03/07","10:09:34",26342.000,"cc",28354.129,1,0.100,20842.000,0.200,4823.000,0.300,605.000,0.500,59.000,1.000,13.000,5.000,0
"05/03/07","10:09:40",26526.000,"cc",28304.100,1,0.100,20861.000,0.200,4977.000,0.300,611.000,0.500,65.000,1.000,12.000,5.000,0
"05/03/07","10:09:46",26007.000,"cc",28293.436,1,0.100,20441.000,0.200,4885.000,0.300,617.000,0.500,58.000,1.000,6.000,5.000,0
"05/03/07","10:09:52",26509.000,"cc",28303.340,1,0.100,20804.000,0.200,5002.000,0.300,631.000,0.500,59.000,1.000,13.000,5.000,0
"05/03/07","10:09:58",26556.000,"cc",28339.449,1,0.100,20965.000,0.200,4929.000,0.300,588.000,0.500,61.000,1.000,13.000,5.000,0
"05/03/07","10:10:04",26733.000,"cc",28300.004,1,0.100,21100.000,0.200,4969.000,0.300,593.000,0.500,61.000,1.000,10.000,5.000,0
"05/03/07","10:10:10",26519.000,"cc",28305.924,1,0.100,20943.000,0.200,4883.000,0.300,630.000,0.500,49.000,1.000,14.000,5.000,0
"05/03/07","10:10:16",26430.000,"cc",28289.998,1,0.100,20859.000,0.200,4896.000,0.300,612.000,0.500,55.000,1.000,8.000,5.000,0
"05/03/07","10:10:22",26807.000,"cc",28371.801,1,0.100,21141.000,0.200,4978.000,0.300,633.000,0.500,47.000,1.000,8.000,5.000,0
"05/03/07","10:10:28",26488.000,"cc",28331.111,1,0.100,20789.000,0.200,4963.000,0.300,677.000,0.500,51.000,1.000,8.000,5.000,0
"05/03/07","10:10:34",26882.000,"cc",28290.336,1,0.100,21117.000,0.200,5053.000,0.300,658.000,0.500,47.000,1.000,7.000,5.000,0
"05/03/07","10:10:40",26719.000,"cc",28317.994,1,0.100,21143.000,0.200,4869.000,0.300,636.000,0.500,61.000,1.000,10.000,5.000,0
"05/03/07","10:10:46",27143.000,"cc",28336.820,1,0.100,21434.000,0.200,5061.000,0.300,596.000,0.500,41.000,1.000,11.000,5.000,0
"05/03/07","10:10:52",26941.000,"cc",28335.268,1,0.100,21266.000,0.200,4946.000,0.300,662.000,0.500,58.000,1.000,9.000,5.000,0
"05/03/07","10:10:58",27070.000,"cc",28264.834,1,0.100,21356.000,0.200,5061.000,0.300,605.000,0.500,43.000,1.000,5.000,5.000,0
"05/03/07","10:11:04",27127.000,"cc",28279.959,1,0.100,21314.000,0.200,5154.000,0.300,606.000,0.500,40.000,1.000,13.000,5.000,0
"05/03/07","10:11:10",26950.000,"cc",28321.986,1,0.100,21263.000,0.200,4969.000,0.300,652.000,0.500,54.000,1.000,12.000,5.000,0
"05/03/07","10:11:16",27279.000,"cc",28351.199,1,0.100,21556.000,0.200,5001.000,0.300,646.000,0.500,62.000,1.000,14.000,5.000,0
"05/03/07","10:11:22",27233.000,"cc",28299.186,1,0.100,21429.000,0.200,5127.000,0.300,623.000,0.500,47.000,1.000,7.000,5.000,0
"05/03/07","10:11:28",27252.000,"cc",28355.566,1,0.100,21483.000,0.200,5098.000,0.300,605.000,0.500,60.000,1.000,6.000,5.000,0
"05/03/07","10:11:34",27590.000,"cc",28317.838,1,0.100,21764.000,0.200,5114.000,0.300,649.000,0.500,53.000,1.000,10.000,5.000,0
"05/03/07","10:11:40",27499.000,"cc",28301.273,1,0.100,21705.000,0.200,5089.000,0.300,654.000,0.500,46.000,1.000,5.000,5.000,0
"05/03/07","10:11:46",27512.000,"cc",28356.697,1,0.100,21828.000,0.200,5034.000,0.300,592.000,0.500,47.000,1.000,11.000,5.000,0
"05/03/07","10:11:52",27587.000,"cc",28241.908,1,0.100,21830.000,0.200,4991.000,0.300,707.000,0.500,55.000,1.000,4.000,5.000,0
"05/03/07","10:11:58",27613.000,"cc",28318.721,1,0.100,21800.000,0.200,5090.000,0.300,670.000,0.500,44.000,1.000,9.000,5.000,0
"05/03/07","10:12:04",27744.000,"cc",28350.121,1,0.100,22017.000,0.200,5060.000,0.300,606.000,0.500,53.000,1.000,8.000,5.000,0
"05/03/07","10:12:10",27134.000,"cc",28311.381,1,0.100,21469.000,0.200,4971.000,0.300,650.000,0.500,40.000,1.000,4.000,5.000,0
"05/03/07","10:12:16",27316.000,"cc",28280.611,1,0.100,21530.000,0.200,5134.000,0.300,589.000,0.500,51.000,1.000,12.000,5.000,0
"05/03/07","10:12:22",27534.000,"cc",28332.129,1,0.100,21780.000,0.200,5059.000,0.300,644.000,0.500,43.000,1.000,8.000,5.000,0
"05/03/07","10:12:28",27390.000,"cc",28327.791,1,0.100,21611.000,0.200,5089.000,0.300,639.000,0.500,43.000,1.000,8.000,5.000,0
"05/03/07","10:12:34",27439.000,"cc",28367.457,1,0.100,21630.000,0.200,5072.000,0.300,687.000,0.500,42.000,1.000,8.000,5.000,0
"05/03/07","10:12:40",27442.000,"cc",28295.693,1,0.100,21679.000,0.200,5060.000,0.300,653.000,0.500,42.000,1.000,8.000,5.000,0
"05/03/07","10:12:46",27518.000,"cc",28321.895,1,0.100,21797.000,0.200,5018.000,0.300,644.000,0.500,46.000,1.000,13.000,5.000,0
"05/03/07","10:12:52",27211.000,"cc",28292.002,1,0.100,21480.000,0.200,5034.000,0.300,633.000,0.500,54.000,1.000,10.000,5.000,0
"05/03/07","10:12:58",26934.000,"cc",28320.914,1,0.100,21253.000,0.200,5016.000,0.300,598.000,0.500,55.000,1.000,12.000,5.000,0
"05/03/07","10:13:04",27189.000,"cc",28340.904,1,0.100,21489.000,0.200,5002.000,0.300,636.000,0.500,55.000,1.000,7.000,5.000,0
"05/03/07","10:13:10",27182.000,"cc",28279.010,1,0.100,21390.000,0.200,5086.000,0.300,636.000,0.500,59.000,1.000,11.000,5.000,0
"05/03/07","10:13:16",27283.000,"cc",28302.789,1,0.100,21451.000,0.200,5092.000,0.300,675.000,0.500,50.000,1.000,15.000,5.000,0
"05/03/07","10:13:22",27238.000,"cc",28316.465,1,0.100,21511.000,0.200,5052.000,0.300,609.000,0.500,56.000,1.000,10.000,5.000,0
"05/03/07","10:13:28",27303.000,"cc",28313.387,1,0.100,21615.000,0.200,5023.000,0.300,594.000,0.500,62.000,1.000,9.000,5.000,0
"05/03/07","10:13:34",27150.000,"cc",28329.859,1,0.100,21418.000,0.200,4982.000,0.300,670.000,0.500,66.000,1.000,14.000,5.000,0
"05/03/07","10:13:40",27230.000,"cc",28301.186,1,0.100,21553.000,0.200,5004.000,0.300,605.000,0.500,49.000,1.000,19.000,5.000,0
"05/03/07","10:13:46",26979.000,"cc",28368.328,1,0.100,21237.000,0.200,5055.000,0.300,618.000,0.500,57.000,1.000,12.000,5.000,0
"05/03/07","10:13:52",27151.000,"cc",28313.633,1,0.100,21573.000,0.200,4927.000,0.300,584.000,0.500,56.000,1.000,11.000,5.000,0
"05/03/07","10:13:58",27259.000,"cc",28310.104,1,0.100,21400.000,0.200,5132.000,0.300,646.000,0.500,68.000,1.000,13.000,5.000,0
"05/03/07","10:14:04",27076.000,"cc",28290.320,1,0.100,21293.000,0.200,5119.000,0.300,607.000,0.500,51.000,1.000,6.000,5.000,0
"05/03/07","10:14:10",27233.000,"cc",28296.719,1,0.100,21591.000,0.200,4969.000,0.300,620.000,0.500,39.000,1.000,14.000,5.000,0
"05/03/07","10:14:16",26874.000,"cc",28282.881,1,0.100,21171.000,0.200,5032.000,0.300,608.000,0.500,53.000,1.000,10.000,5.000,0
"05/03/07","10:14:22",27165.000,"cc",28291.629,1,0.100,21386.000,0.200,5094.000,0.300,629.000,0.500,52.000,1.000,4.000,5.000,0
"05/03/07","10:14:28",27260.000,"cc",28430.779,1,0.100,21537.000,0.200,4985.000,0.300,687.000,0.500,43.000,1.000,8.000,5.000,0
"05/03/07","10:14:34",26931.000,"cc",28341.768,1,0.100,21049.000,0.200,5168.000,0.300,663.000,0.500,44.000,1.000,7.000,5.000,0
"05/03/07","10:14:40",27068.000,"cc",28295.137,1,0.100,21353.000,0.200,5029.000,0.300,636.000,0.500,40.000,1.000,10.000,5.000,0
"05/03/07","10:14:46",27023.000,"cc",28316.441,1,0.100,21386.000,0.200,4987.000,0.300,598.000,0.500,44.000,1.000,8.000,5.000,0
"05/03/07","10:14:52",27121.000,"cc",28297.068,1,0.100,21400.000,0.200,5057.000,0.300,606.000,0.500,51.000,1.000,7.000,5.000,0
"05/03/07","10:14:58",27177.000,"cc",28331.279,1,0.100,21490.000,0.200,5039.000,0.300,601.000,0.500,42.000,1.000,5.000,5.000,0
"05/03/07","10:15:04",27086.000,"cc",28292.633,1,0.100,21498.000,0.200,4923.000,0.300,615.000,0.500,42.000,1.000,8.000,5.000,0
"05/03/07","10:15:10",27009.000,"cc",28333.109,1,0.100,21305.000,0.200,5070.000,0.300,578.000,0.500,45.000,1.000,11.000,5.000,0
"05/03/07","10:15:16",27050.000,"cc",28290.211,1,0.100,21364.000,0.200,5012.000,0.300,620.000,0.500,40.000,1.000,14.000,5.000,0
"05/03/07","10:15:22",27648.000,"cc",28292.959,1,0.100,21872.000,0.200,5077.000,0.300,641.000,0.500,48.000,1.000,10.000,5.000,0
"05/03/07","10:15:28",27477.000,"cc",28338.936,1,0.100,21646.000,0.200,5150.000,0.300,623.000,0.500,44.000,1.000,14.000,5.000,0
"05/03/07","10:15:34",27483.000,"cc",28312.289,1,0.100,21665.000,0.200,5106.000,0.300,657.000,0.500,41.000,1.000,14.000,5.000,0
"05/03/07","10:15:40",27695.000,"cc",28316.061,1,0.100,21959.000,0.200,5101.000,0.300,590.000,0.500,38.000,1.000,7.000,5.000,0
"05/03/07","10:15:46",27602.000,"cc",28334.551,1,0.100,21824.000,0.200,5071.000,0.300,655.000,0.500,46.000,1.000,6.000,5.000,0
"05/03/07","10:15:52",27681.000,"cc",28345.264,1,0.100,21928.000,0.200,5082.000,0.300,606.000,0.500,55.000,1.000,10.000,5.000,0
"05/03/07","10:15:58",27296.000,"cc",28317.910,1,0.100,21479.000,0.200,5113.000,0.300,613.000,0.500,73.000,1.000,18.000,5.000,0
"05/03/07","10:16:04",27689.000,"cc",28319.115,1,0.100,21838.000,0.200,5152.000,0.300,642.000,0.500,47.000,1.000,10.000,5.000,0
"05/03/07","10:16:10",27477.000,"cc",28317.260,1,0.100,21861.000,0.200,4921.000,0.300,625.000,0.500,64.000,1.000,6.000,5.000,0
"05/03/07","10:16:16",27448.000,"cc",28345.869,1,0.100,21637.000,0.200,5147.000,0.300,620.000,0.500,35.000,1.000,9.000,5.000,0
"05/03/07","10:16:22",27275.000,"cc",28312.221,1,0.100,21488.000,0.200,5064.000,0.300,655.000,0.500,56.000,1.000,12.000,5.000,0
"05/03/07","10:16:28",27597.000,"cc",28288.975,1,0.100,21924.000,0.200,4994.000,0.300,622.000,0.500,47.000,1.000,10.000,5.000,0
"05/03/07","10:16:34",27498.000,"cc",28301.791,1,0.100,21730.000,0.200,5066.000,0.300,633.000,0.500,60.000,1.000,9.000,5.000,0
"05/03/07","10:16:40",27478.000,"cc",28290.645,1,0.100,21500.000,0.200,5250.000,0.300,660.000,0.500,55.000,1.000,13.000,5.000,0
"05/03/07","10:16:46",27505.000,"cc",28294.170,1,0.100,21699.000,0.200,5098.000,0.300,634.000,0.500,61.000,1.000,13.000,5.000,0
"05/03/07","10:16:52",27173.000,"cc",28303.641,1,0.100,21322.000,0.200,5087.000,0.300,693.000,0.500,61.000,1.000,10.000,5.000,0
"05/03/07","10:16:58",27373.000,"cc",28331.611,1,0.100,21608.000,0.200,5110.000,0.300,600.000,0.500,47.000,1.000,8.000,5.000,0
"05/03/07","10:17:04",27654.000,"cc",28351.514,1,0.100,21751.000,0.200,5164.000,0.300,674.000,0.500,54.000,1.000,11.000,5.000,0
"05/03/07","10:17:10",27512.000,"cc",28309.744,1,0.100,21696.000,0.200,5112.000,0.300,640.000,0.500,54.000,1.000,10.000,5.000,0
"05/03/07","10:17:16",27359.000,"cc",28278.652,1,0.100,21569.000,0.200,5087.000,0.300,630.000,0.500,53.000,1.000,20.000,5.000,0
"05/03/07","10:17:22",27284.000,"cc",28289.565,1,0.100,21458.000,0.200,5108.000,0.300,641.000,0.500,61.000,1.000,16.000,5.000,0
"05/03/07","10:17:28",27469.000,"cc",28376.666,1,0.100,21725.000,0.200,5016.000,0.300,644.000,0.500,66.000,1.000,18.000,5.000,0
"05/03/07","10:17:34",26894.000,"cc",28335.809,1,0.100,21093.000,0.200,5076.000,0.300,655.000,0.500,54.000,1.000,16.000,5.000,0